Regional Weather Roundup
Issued by NWS

Home | Current Version | Previous Version | Graphics & Text | Print | Product List | Glossary On
Versions: 1 2 3 4 5 6 7 8 9 10 11 12 13 14 15 16 17 18 19 20 21 22 23 24 25 26 27 28 29 30 31 32 33 34 35 36 37 38 39 40 41 42 43 44 45 46 47 48 49 50
815
ASUS43 KIND 260559
RWRIN

WEATHER ROUNDUP FOR INDIANA
NATIONAL WEATHER SERVICE INDIANAPOLIS IN
200 AM EDT SUN MAR 26 2017

NOTE: "FAIR" INDICATES FEW OR NO CLOUDS BELOW 12,000 FEET WITH NO
SIGNIFICANT WEATHER AND/OR OBSTRUCTIONS TO VISIBILITY.

* - STATION DOES NOT REPORT WEATHER SUCH AS PRECIPITATION OR FOG.

+ - STATION NOT QUALITY CONTROLLED BY THE NATIONAL WEATHER SERVICE.
    USE DATA WITH CAUTION...ESPECIALLY DEWPOINT AND RELATIVE
    HUMIDITY OBSERVATIONS.

INZ001>003-010>013-019-020-260700-
NORTHWEST INDIANA

CITY           SKY/WX    TMP DP  RH WIND       PRES   REMARKS
KNOX *+        CLOUDY    46  37  71 E10       29.95F
MONTICELLO +   CLOUDY    52  50  95 E9        29.94S
6HR MIN TEMP:  52; 6HR MAX TEMP:  62; 6HR PCP:  0.12;


$$

LMZ046-743>745-260700-
SOUTHERN LAKE MICHIGAN

STATION/POSITION TIME  TEMP    WIND        PRES    WAVE
                       AIR SEA DIR/SP/G            HT
                 (UTC) (F)     (DEG/KT/KT) (MB)    (FT)
BURNS HARBOR     0540   51     120/ 14/ 20 1013.9F
MICHIGAN CITY    0530   49     110/ 14/ 17   N/A

$$

INZ004-005-014>016-021>024-260700-
NORTH CENTRAL INDIANA

CITY           SKY/WX    TMP DP  RH WIND       PRES   REMARKS
GOSHEN         CLOUDY    44  39  82 E10       30.01F
6HR MIN TEMP:  44; 6HR MAX TEMP:  50; 6HR PCP:  0.19;

SOUTH BEND     LGT RAIN  45  50 100 E10       29.98F
6HR MIN TEMP:  45; 6HR MAX TEMP:  52; 6HR PCP:  0.08;


$$

INZ006>009-017-018-025>027-260700-
NORTHEAST INDIANA

CITY           SKY/WX    TMP DP  RH WIND       PRES   REMARKS
ANGOLA *+      MOCLDY    39  39 100 E14       30.05F
FORT WAYNE     CLOUDY    43  39  86 E14       30.03F
6HR MIN TEMP:  43; 6HR MAX TEMP:  49; 6HR PCP: TRACE;

KENDALLVILLE + CLOUDY    40  39  95 E8        30.04F

$$

INZ028-029-035-036-043>045-051>053-260700-
WEST CENTRAL INDIANA

CITY           SKY/WX    TMP DP  RH WIND       PRES   REMARKS
CRAWFORDSVL +  CLOUDY    57  57 100 SE13      29.93S
6HR MIN TEMP:  57; 6HR MAX TEMP:  66; 6HR PCP:  0.01;

GREENCASTLE +  CLOUDY    57  55  94 S10       29.94F
LAFAYETTE      CLOUDY    59  56  89 SE10      29.92S
6HR MIN TEMP:  59; 6HR MAX TEMP:  64; 6HR PCP: TRACE;

TERRE HAUTE    CLOUDY    60  55  83 SE14      29.91F
6HR MIN TEMP:  60; 6HR MAX TEMP:  66; 6HR PCP:  0.02;


$$

INZ030>032-037>040-046>048-054>057-064-065-260700-
CENTRAL INDIANA

CITY           SKY/WX    TMP DP  RH WIND       PRES   REMARKS
INDIANAPOLIS   LGT RAIN  58  56  93 SE7       29.95F
6HR MIN TEMP:  58; 6HR MAX TEMP:  60; 6HR PCP:  0.21;

-EAGLE CREEK   LGT RAIN  59  56  89 SE6       29.95F
6HR MIN TEMP:  58; 6HR MAX TEMP:  61; 6HR PCP:  0.29;

KOKOMO +       CLOUDY    50  48  93 E12       29.98F
6HR MIN TEMP:  50; 6HR MAX TEMP:  63; 6HR PCP:  0.35;

SHELBYVILLE    LGT RAIN  63  53  70 S13       29.96F
6HR MIN TEMP:  59; 6HR MAX TEMP:  66; 6HR PCP:  0.02;


$$

INZ033-034-041-042-049-050-058-059-260700-
EAST CENTRAL INDIANA

CITY           SKY/WX    TMP DP  RH WIND       PRES   REMARKS
MUNCIE         CLOUDY    54  50  86 E8        29.98F
6HR MIN TEMP:  54; 6HR MAX TEMP:  71; 6HR PCP:  0.03;

RICHMOND +     LGT RAIN  55  54  94 S9        30.01F

$$

INZ060-061-067>069-081>083-085>088-260700-
SOUTHWEST INDIANA

CITY           SKY/WX    TMP DP  RH WIND       PRES   REMARKS
EVANSVILLE     CLOUDY    60  57  89 SE7       29.93S
6HR MIN TEMP:  60; 6HR MAX TEMP:  68; 6HR PCP:  0.12;

HUNTINGBURG *+ LGT RAIN  60  56  86 S10G17    29.95S
6HR MIN TEMP:  60; 6HR MAX TEMP:  67; 6HR PCP:  0.09;


$$

INZ062-063-066-070>080-084-089>092-260700-
SOUTH CENTRAL AND SOUTHEAST INDIANA

CITY           SKY/WX    TMP DP  RH WIND       PRES   REMARKS
BLOOMINGTON    LGT RAIN  58  55  90 SE6       29.94F
6HR MIN TEMP:  58; 6HR MAX TEMP:  61; 6HR PCP:  0.13;

MADISON *+     CLOUDY    61  54  77 S6        30.02S
SEYMOUR +      LGT RAIN  63  54  72 S14       29.98

$$





USA.gov is the U.S. government's official web portal to all federal, state and local government web resources and services.